Tracking 30923 objects as of 1-Jul-2025
HD Live streaming from Space Station
objects crossing your sky now

FENGYUN 1C DEB

Track FENGYUN 1C DEB now!
10-day predictions


NORAD ID: 37902
Int'l Code: 1999-025ENB
Perigee: 827.7 km
Apogee: 1,316.9 km
Inclination: 98.7 °
Period: 106.5 minutes
Semi major axis: 7443 km
RCS: 0.0026 m2 (small)
Launch date: May 10, 1999
Source: People's Republic of China (PRC)
Launch site: Taiyaun Space Center, China (TSC)

Note: This is SATELLITE DEBRIS
Your satellite tracking list
COSMOS 1818 COOLANT
Track 1 satellite(s)




NASA's NSSDC Master Catalog

Two Line Element Set (TLE):
1 37902U 99025ENB 25175.62316233  .00001180  00000-0  13209-2 0  9999
2 37902  98.6923  56.7448 0328618  27.8916 333.9416 13.51938352606646
Source of the keplerian elements: AFSPC